カタログに戻る

BRO-22

運用中科学SSO
NORAD 69504·PAYLOAD·🇫🇷 France

打ち上げ Jun 12, 2026 から Tanegashima Space Center

Loading…

次のパス (今後24時間)

TLE

最新Source: Space-Track

元期: Sep 14, 2026, 14:48 UTC

1 69504U 26132C   26257.61706200 -.00000189  00000-0 -10360-4 0  9996
2 69504  97.6801 320.1511 0017408 331.7807  28.2471 14.99942413 14183

AllMySatでBRO-22をリアルタイム追跡

Download on the App Store